Location: Martley
(52.2333°N, 2.3667°W)
Time: 16:48:51
(UTC+00:00)

SOZ - Pass Details

Date: 11 December 2019
Orbit: 288 x 13337 km, 52.0° (Epoch: 28 January)

Event Time Altitude Azimuth Distance (km) Brightness Sun altitude
Exits shadow 06:08:59 44° 204° (SSW) 445 4.2 -17.0°
Maximum altitude 06:09:00 44° 203° (SSW) 445 4.3 -17.0°
Drops below altitude 10° 06:10:59 10° 127° (SE) 1,140 7.5 -16.7°
Sets 06:12:48 0° 119° (ESE) 2,075 9.4 -16.5°
